Estación Meteorológica de la Universidad de Murcia
Estación Meteorológica de la Universidad de Murcia
Universidad de Murcia
 

Temperatura ambienteTemperatura ambiente

 

Máxima: 21,8 ºC a las 14:32:00 del día 12/11/2018
Mínima: 11 ºC a las 07:55:00 del día 12/11/2018

||Temperatura máxima últimos meses|| ---- ||Temperatura mínima últimos meses||


Temperatura máxima

  • 1 - 21,8 ºC del día 12/11/2018
  • 2 - 24,2 ºC del día 11/11/2018
  • 3 - 22,8 ºC del día 10/11/2018
  • 4 - 18,4 ºC del día 09/11/2018
  • 5 - 21 ºC del día 08/11/2018
  • 6 - 21,6 ºC del día 07/11/2018
  • 7 - 19,9 ºC del día 06/11/2018
  • 8 - 14,2 ºC del día 05/11/2018
  • 9 - 23,3 ºC del día 04/11/2018
  • 10 - 19,7 ºC del día 03/11/2018
  • 11 - 21,6 ºC del día 02/11/2018
  • 12 - 17,9 ºC del día 01/11/2018
  • 13 - 17,9 ºC del día 31/10/2018
  • 14 - 13,3 ºC del día 30/10/2018
  • 15 - 16,2 ºC del día 29/10/2018
  • 16 - 14,9 ºC del día 28/10/2018
  • 17 - 22,2 ºC del día 27/10/2018
  • 18 - 25,7 ºC del día 26/10/2018
  • 19 - 29,1 ºC del día 25/10/2018
  • 20 - 28 ºC del día 24/10/2018
  • 21 - 23,8 ºC del día 23/10/2018
  • 22 - 27,4 ºC del día 22/10/2018
  • 23 - 25,6 ºC del día 21/10/2018
  • 24 - 22,3 ºC del día 20/10/2018
  • 25 - 24,1 ºC del día 19/10/2018
  • 26 - 25 ºC del día 18/10/2018
  • 27 - 26,5 ºC del día 17/10/2018
  • 28 - 22,8 ºC del día 16/10/2018
  • 29 - 24,5 ºC del día 15/10/2018
  • 30 - 23,3 ºC del día 14/10/2018
  • 31 - 27,7 ºC del día 13/10/2018
  • 32 - 29,6 ºC del día 12/10/2018
  • 33 - 26,8 ºC del día 11/10/2018
  • 34 - 26,6 ºC del día 10/10/2018
  • 35 - 22 ºC del día 09/10/2018
  • 36 - 24,4 ºC del día 08/10/2018
  • 37 - 29,6 ºC del día 07/10/2018
  • 38 - 30,2 ºC del día 06/10/2018
  • 39 - 28,4 ºC del día 05/10/2018
  • 40 - 28,6 ºC del día 04/10/2018
  • 41 - 28,9 ºC del día 03/10/2018
  • 42 - 27,1 ºC del día 02/10/2018
  • 43 - 28,9 ºC del día 01/10/2018
  • 44 - 30,2 ºC del día 30/09/2018
  • 45 - 29,9 ºC del día 29/09/2018
  • 46 - 28,7 ºC del día 28/09/2018
  • 47 - 27,8 ºC del día 27/09/2018
  • 48 - 29,3 ºC del día 26/09/2018
  • 49 - 30,2 ºC del día 25/09/2018
  • 50 - 32 ºC del día 21/09/2018
  • 51 - 32 ºC del día 20/09/2018
  • 52 - 32 ºC del día 19/09/2018
  • 53 - 31,7 ºC del día 18/09/2018
  • 54 - 28,9 ºC del día 17/09/2018
  • 55 - 29,9 ºC del día 16/09/2018
  • 56 - 25,4 ºC del día 15/09/2018
  • 57 - 30,8 ºC del día 14/09/2018

||Volver al inicio de la página||


Temperatura mínima

  • 1 - 11 ºC del día 12/11/2018
  • 2 - 11,3 ºC del día 11/11/2018
  • 3 - 10,6 ºC del día 10/11/2018
  • 4 - 9,3 ºC del día 09/11/2018
  • 5 - 9,5 ºC del día 08/11/2018
  • 6 - 6,5 ºC del día 07/11/2018
  • 7 - 7,9 ºC del día 06/11/2018
  • 8 - 9,6 ºC del día 05/11/2018
  • 9 - 6,8 ºC del día 04/11/2018
  • 10 - 9,9 ºC del día 03/11/2018
  • 11 - 8,6 ºC del día 02/11/2018
  • 12 - 7,1 ºC del día 01/11/2018
  • 13 - 8,2 ºC del día 31/10/2018
  • 14 - 9,1 ºC del día 30/10/2018
  • 15 - 8,7 ºC del día 29/10/2018
  • 16 - 10,5 ºC del día 28/10/2018
  • 17 - 13,2 ºC del día 27/10/2018
  • 18 - 12,5 ºC del día 26/10/2018
  • 19 - 12,2 ºC del día 25/10/2018
  • 20 - 13,6 ºC del día 24/10/2018
  • 21 - 17 ºC del día 23/10/2018
  • 22 - 16,3 ºC del día 22/10/2018
  • 23 - 19,2 ºC del día 21/10/2018
  • 24 - 15,2 ºC del día 20/10/2018
  • 25 - 15,2 ºC del día 19/10/2018
  • 26 - 13,9 ºC del día 18/10/2018
  • 27 - 14,7 ºC del día 17/10/2018
  • 28 - 14,3 ºC del día 16/10/2018
  • 29 - 12,6 ºC del día 15/10/2018
  • 30 - 16,1 ºC del día 14/10/2018
  • 31 - 18,9 ºC del día 13/10/2018
  • 32 - 17,7 ºC del día 12/10/2018
  • 33 - 16,9 ºC del día 11/10/2018
  • 34 - 15,5 ºC del día 10/10/2018
  • 35 - 14,6 ºC del día 09/10/2018
  • 36 - 17,3 ºC del día 08/10/2018
  • 37 - 16,1 ºC del día 07/10/2018
  • 38 - 15,4 ºC del día 06/10/2018
  • 39 - 15,6 ºC del día 05/10/2018
  • 40 - 15,3 ºC del día 04/10/2018
  • 41 - 15,6 ºC del día 03/10/2018
  • 42 - 17,8 ºC del día 02/10/2018
  • 43 - 17,1 ºC del día 01/10/2018
  • 44 - 15,9 ºC del día 30/09/2018
  • 45 - 16,1 ºC del día 29/09/2018
  • 46 - 17,5 ºC del día 28/09/2018
  • 47 - 20 ºC del día 27/09/2018
  • 48 - 21,9 ºC del día 26/09/2018
  • 49 - 22,3 ºC del día 25/09/2018
  • 50 - 21,1 ºC del día 21/09/2018
  • 51 - 21,1 ºC del día 20/09/2018
  • 52 - 20,1 ºC del día 19/09/2018
  • 53 - 21,6 ºC del día 18/09/2018
  • 54 - 21,8 ºC del día 17/09/2018
  • 55 - 19,1 ºC del día 16/09/2018
  • 56 - 20,4 ºC del día 15/09/2018
  • 57 - 21,3 ºC del día 14/09/2018

 

|| Humedad relativa|| Velocidad y dirección del viento|| Precipitación|| Radiación Solar Global y PAR|| Temperatura y humedad del suelo|| Presión atmosférica|| Más información|| Volver a la página principal|| Volver al inicio de la página||


Estación Meteorológica de la Universidad de Murcia
http://estacion.um.es/
Informacion actualizada a: 13/11/2018 a las 01:15:00